Terug naar catalogus

STARLINK-38101

ActiefCommunicatieSSO
NORAD 100110·PAYLOAD·🇺🇸 United States

Gelanceerd Jul 21, 2026 vanaf Vandenberg Space Force Base

Loading…

Volgende Passages (komende 24 uur)

TLE

VersSource: Space-Track

Epoch: Sep 14, 2026, 07:16 UTC

1 A0110U 26166K   26257.30325935  .00138089  00000-0  91129-3 0  9999
2 A0110  97.2871 275.2798 0002858 102.7174 257.4410 15.75199647  8626

Volg STARLINK-38101 in realtime met AllMySat

Download on the App Store